H1 CPF 2 NER 2021 5 4 9 124 01 glonass139 H2 1808601 9139 43687 2021 5 4 0 0 0 2021 5 7 23 45 0 900 1 1 0 0 0 1 H9 10 0 59338 0.00000 0 -12639228.142 -16837966.812 -14384558.949 10 0 59338 900.00000 0 -11065067.579 -15727831.958 -16742079.328 10 0 59338 1800.00000 0 -9176384.991 -14606671.332 -18773988.990 10 0 59338 2700.00000 0 -7004064.186 -13530775.326 -20440728.890 10 0 59338 3600.00000 0 -4590344.111 -12550952.727 -21709844.105 10 0 59338 4500.00000 0 -1987313.196 -11710364.156 -22556619.155 10 0 59338 5400.00000 0 745008.869 -11042696.517 -22964561.844 10 0 59338 6300.00000 0 3540922.877 -10570755.563 -22925726.113 10 0 59338 7200.00000 0 6331542.070 -10305535.851 -22440867.638 10 0 59338 8100.00000 0 9047421.000 -10245807.071 -21519429.140 10 0 59338 9000.00000 0 11621212.254 -10378233.898 -20179355.655 10 0 59338 9900.00000 0 13990240.582 -10678023.919 -18446743.379 10 0 59338 10800.00000 0 16098887.585 -11110075.793 -16355328.874 10 0 59338 11700.00000 0 17900687.944 -11630578.636 -13945828.622 10 0 59338 12600.00000 0 19360050.174 -12188994.414 -11265141.922 10 0 59338 13500.00000 0 20453530.789 -12730338.929 -8365432.893 10 0 59338 14400.00000 0 21170609.503 -13197664.205 -5303109.785 10 0 59338 15300.00000 0 21513934.133 -13534636.640 -2137722.034 10 0 59338 16200.00000 0 21499026.313 -13688101.168 1069202.895 10 0 59338 17100.00000 0 21153461.874 -13610522.433 4255359.681 10 0 59338 18000.00000 0 20515561.815 -13262199.279 7358878.286 10 0 59338 18900.00000 0 19632650.420 -12613158.642 10319526.081 10 0 59338 19800.00000 0 18558955.028 -11644648.628 13079875.372 10 0 59338 20700.00000 0 17353236.787 -10350167.653 15586413.557 10 0 59338 21600.00000 0 16076252.649 -8735986.134 17790574.748 10 0 59338 22500.00000 0 14788155.442 -6821138.476 19649673.435 10 0 59338 23400.00000 0 13545941.026 -4636885.353 21127722.854 10 0 59338 24300.00000 0 12401049.079 -2225668.076 22196123.234 10 0 59338 25200.00000 0 11397217.244 360402.168 22834207.612 10 0 59338 26100.00000 0 10568677.568 3061458.305 23029635.580 10 0 59338 27000.00000 0 9938769.673 5812116.316 22778628.134 10 0 59338 27900.00000 0 9519027.779 8543947.615 22086039.565 10 0 59338 28800.00000 0 9308779.031 11188083.647 20965265.141 10 0 59338 29700.00000 0 9295269.410 13677846.201 19437986.180 10 0 59338 30600.00000 0 9454311.750 15951295.644 17533756.877 10 0 59338 31500.00000 0 9751428.708 17953592.373 15289440.119 10 0 59338 32400.00000 0 10143442.937 19639074.276 12748502.228 10 0 59338 33300.00000 0 10580447.967 20972964.399 9960179.247 10 0 59338 34200.00000 0 11008077.208 21932637.913 6978530.012 10 0 59338 35100.00000 0 11369975.683 22508395.646 3861393.587 10 0 59338 36000.00000 0 11610370.259 22703711.784 669270.682 10 0 59338 36900.00000 0 11676629.575 22534945.185 -2535849.381 10 0 59338 37800.00000 0 11521704.974 22030526.275 -5691693.400 10 0 59338 38700.00000 0 11106348.303 21229653.576 -8736917.056 10 0 59338 39600.00000 0 10401011.718 20180554.646 -11612301.581 10 0 59338 40500.00000 0 9387347.761 18938384.729 -14261910.491 10 0 59338 41400.00000 0 8059244.729 17562851.735 -16634183.336 10 0 59338 42300.00000 0 6423352.037 16115667.903 -18682944.494 10 0 59338 43200.00000 0 4499071.670 14657935.703 -20368306.974 10 0 59338 44100.00000 0 2318014.409 13247578.337 -21657453.278 10 0 59338 45000.00000 0 -77057.821 11936923.204 -22525277.869 10 0 59338 45900.00000 0 -2633760.575 10770540.115 -22954878.637 10 0 59338 46800.00000 0 -5292023.688 9783425.118 -22937887.786 10 0 59338 47700.00000 0 -7986356.189 8999606.159 -22474635.649 10 0 59338 48600.00000 0 -10648345.535 8431228.836 -21574144.288 10 0 59338 49500.00000 0 -13209287.477 8078160.172 -20253950.984 10 0 59338 50400.00000 0 -15602837.165 7928126.429 -18539765.024 10 0 59338 51300.00000 0 -17767571.273 7957378.357 -16464964.500 10 0 59338 52200.00000 0 -19649354.532 8131854.930 -14069942.869 10 0 59338 53100.00000 0 -21203412.091 8408795.523 -11401318.203 10 0 59338 54000.00000 0 -22396021.592 8738731.445 -8511020.697 10 0 59338 54900.00000 0 -23205754.780 9067771.650 -5455276.549 10 0 59338 55800.00000 0 -23624217.402 9340085.026 -2293508.545 10 0 59338 56700.00000 0 -23656257.447 9500473.328 912824.707 10 0 59338 57600.00000 0 -23319634.170 9496925.102 4101427.682 10 0 59338 58500.00000 0 -22644163.071 9283041.920 7210381.026 10 0 59338 59400.00000 0 -21670374.140 8820233.834 10179344.772 10 0 59338 60300.00000 0 -20447740.881 8079590.891 12950728.102 10 0 59338 61200.00000 0 -19032555.607 7043351.520 15470802.807 10 0 59338 62100.00000 0 -17485540.881 5705905.647 17690739.211 10 0 59338 63000.00000 0 -15869297.668 4074290.068 19567545.033 10 0 59338 63900.00000 0 -14245697.130 2168154.940 21064889.733 10 0 59338 64800.00000 0 -12673324.826 19202.195 22153799.432 10 0 59338 65700.00000 0 -11205083.454 -2329881.474 22813209.920 10 0 59338 66600.00000 0 -9886053.358 -4826953.502 23030368.021 10 0 59338 67500.00000 0 -8751699.016 -7412343.855 22801074.321 10 0 59338 68400.00000 0 -7826495.219 -10021104.142 22129763.075 10 0 59338 69300.00000 0 -7123029.293 -12585485.466 21029417.884 10 0 59338 70200.00000 0 -6641615.970 -15037543.568 19521324.623 10 0 59338 71100.00000 0 -6370440.327 -17311764.555 17634665.825 10 0 59338 72000.00000 0 -6286222.465 -19347603.148 15405963.639 10 0 59338 72900.00000 0 -6355375.876 -21091828.910 12878381.159 10 0 59338 73800.00000 0 -6535610.846 -22500583.400 10100894.621 10 0 59338 74700.00000 0 -6777915.623 -23541062.699 7127351.589 10 0 59338 75600.00000 0 -7028831.940 -24192755.156 4015432.595 10 0 59338 76500.00000 0 -7232928.932 -24448182.356 825535.756 10 0 59338 77400.00000 0 -7335370.748 -24313111.921 -2380394.147 10 0 59338 78300.00000 0 -7284468.876 -23806232.822 -5540069.438 10 0 59338 79200.00000 0 -7034110.478 -22958306.436 -8592072.490 10 0 59338 80100.00000 0 -6545959.004 -21810828.727 -11477053.755 10 0 59338 81000.00000 0 -5791332.739 -20414259.612 -14138890.995 10 0 59338 81900.00000 0 -4752680.391 -18825893.905 -16525786.614 10 0 59338 82800.00000 0 -3424589.790 -17107463.467 -18591281.056 10 0 59338 83700.00000 0 -1814285.512 -15322571.506 -20295162.127 10 0 59338 84600.00000 0 58407.300 -13534066.990 -21604252.210 10 0 59338 85500.00000 0 2161632.916 -11801469.665 -22493057.753 10 0 59339 0.00000 0 4452586.358 -10178553.774 -22944268.333 10 0 59339 900.00000 0 6879062.407 -8711191.986 -22949095.510 10 0 59339 1800.00000 0 9381407.699 -7435549.125 -22507444.907 10 0 59339 2700.00000 0 11894796.202 -6376702.391 -21627918.078 10 0 59339 3600.00000 0 14351732.921 -5547743.642 -20327644.252 10 0 59339 4500.00000 0 16684681.906 -4949401.976 -18631945.089 10 0 59339 5400.00000 0 18828709.096 -4570200.783 -16573839.028 10 0 59339 6300.00000 0 20724029.785 -4387141.745 -14193394.869 10 0 59339 7200.00000 0 22318354.321 -4366885.688 -11536947.337 10 0 59339 8100.00000 0 23568934.162 -4467379.205 -8656190.119 10 0 59339 9000.00000 0 24444222.957 -4639857.047 -5607164.329 10 0 59339 9900.00000 0 24925083.496 -4831134.452 -2449162.706 10 0 59339 10800.00000 0 25005490.607 -4986091.289 756428.638 10 0 59339 11700.00000 0 24692701.409 -5050241.882 3947327.744 10 0 59339 12600.00000 0 24006886.710 -4972280.980 7061569.682 10 0 59339 13500.00000 0 22980240.199 -4706497.476 10038710.735 10 0 59339 14400.00000 0 21655603.829 -4214953.374 12821000.262 10 0 59339 15300.00000 0 20084668.081 -3469335.669 15354497.391 10 0 59339 16200.00000 0 18325823.269 -2452402.783 17590111.165 10 0 59339 17100.00000 0 16441752.324 -1158964.415 19484544.582 10 0 59339 18000.00000 0 14496865.863 403646.639 21001124.915 10 0 59339 18900.00000 0 12554686.439 2215630.953 22110505.281 10 0 59339 19800.00000 0 10675290.471 4245305.538 22791224.856 10 0 59339 20700.00000 0 8912913.687 6450189.979 23030117.856 10 0 59339 21600.00000 0 7313818.647 8778551.499 22822564.149 10 0 59339 22500.00000 0 5914511.969 11171345.946 22172577.185 10 0 59339 23400.00000 0 4740384.334 13564475.294 21092727.710 10 0 59339 24300.00000 0 3804828.769 15891269.301 19603904.570 10 0 59339 25200.00000 0 3108873.054 18085089.530 17734916.724 10 0 59339 26100.00000 0 2641340.877 20081948.588 15521943.389 10 0 59339 27000.00000 0 2379534.484 21823036.523 13007842.028 10 0 59339 27900.00000 0 2290409.870 23257049.803 10241326.499 10 0 59339 28800.00000 0 2332195.043 24342225.896 7276030.416 10 0 59339 29700.00000 0 2456383.131 25047998.512 4169473.026 10 0 59339 30600.00000 0 2610016.240 25356203.901 981947.074 10 0 59339 31500.00000 0 2738163.428 25261787.161 -2224649.950 10 0 59339 32400.00000 0 2786487.684 24772978.307 -5388018.537 10 0 59339 33300.00000 0 2703792.694 23910930.050 -8446670.242 10 0 59339 34200.00000 0 2444440.809 22708831.880 -11341127.005 10 0 59339 35100.00000 0 1970538.783 21210537.208 -14015082.852 10 0 59339 36000.00000 0 1253797.504 19468760.847 -16416504.788 10 0 59339 36900.00000 0 276985.699 17542922.398 -18498650.806 10 0 59339 37800.00000 0 -965085.355 15496725.978 -20220984.748 10 0 59339 38700.00000 0 -2465089.257 13395577.851 -21549969.889 10 0 59339 39600.00000 0 -4203245.471 11303950.316 -22459725.467 10 0 59339 40500.00000 0 -6147912.804 9282802.297 -22932533.316 10 0 59339 41400.00000 0 -8256691.845 7387164.556 -22959184.703 10 0 59339 42300.00000 0 -10477991.209 5663990.449 -22539160.556 10 0 59339 43200.00000 0 -12752992.960 4150361.732 -21680641.657 10 0 59339 44100.00000 0 -15017935.683 2872123.894 -20400348.532 10 0 59339 45000.00000 0 -17206620.112 1843007.391 -18723214.187 10 0 59339 45900.00000 0 -19253032.827 1064270.497 -16681896.040 10 0 59339 46800.00000 0 -21093978.397 524877.519 -14316136.567 10 0 59339 47700.00000 0 -22671609.801 202203.491 -11671985.254 10 0 59339 48600.00000 0 -23935751.191 63234.153 -8800897.201 10 0 59339 49500.00000 0 -24845915.745 66209.083 -5758726.266 10 0 59339 50400.00000 0 -25372934.119 162637.146 -2604632.866 10 0 59339 51300.00000 0 -25500125.533 299597.657 600071.727 10 0 59339 52200.00000 0 -25223962.849 422228.690 3793121.545 10 0 59339 53100.00000 0 -24554204.379 476296.236 6912508.567 10 0 59339 54000.00000 0 -23513487.707 410734.674 9897687.857 10 0 59339 54900.00000 0 -22136403.406 180050.532 12690751.510 10 0 59339 55800.00000 0 -20468088.298 -253512.409 15237548.486 10 0 59339 56700.00000 0 -18562397.868 -918138.279 17488728.935 10 0 59339 57600.00000 0 -16479734.667 -1831012.045 19400693.297 10 0 59339 58500.00000 0 -14284623.646 -2997360.373 20936428.532 10 0 59339 59400.00000 0 -12043135.334 -4410000.983 22066216.263 10 0 59339 60300.00000 0 -9820263.676 -6049419.840 22768200.170 10 0 59339 61200.00000 0 -7677366.874 -7884373.579 23028802.546 10 0 59339 62100.00000 0 -5669776.539 -9872992.924 22842982.833 10 0 59339 63000.00000 0 -3844673.268 -11964342.245 22214333.581 10 0 59339 63900.00000 0 -2239315.731 -14100371.491 21155012.230 10 0 59339 64800.00000 0 -879695.588 -16218180.631 19685509.835 10 0 59339 65700.00000 0 220326.906 -18252503.660 17834260.721 10 0 59339 66600.00000 0 1059371.501 -20138309.892 15637099.847 10 0 59339 67500.00000 0 1648357.006 -21813415.142 13136577.464 10 0 59339 68400.00000 0 2009798.917 -23220994.548 10381143.257 10 0 59339 69300.00000 0 2176615.429 -24311892.401 7424214.893 10 0 59339 70200.00000 0 2190492.285 -25046632.370 4323148.190 10 0 59339 71100.00000 0 2099875.543 -25397043.621 1138128.259 10 0 59339 72000.00000 0 1957677.129 -25347433.997 -2068997.068 10 0 59339 72900.00000 0 1818790.483 -24895260.246 -5235918.894 10 0 59339 73800.00000 0 1737521.864 -24051266.233 -8301080.476 10 0 59339 74700.00000 0 1765046.679 -22839082.430 -11204877.819 10 0 59339 75600.00000 0 1946999.436 -21294302.690 -13890823.815 10 0 59339 76500.00000 0 2321300.403 -19463076.367 -16306652.652 10 0 59339 77400.00000 0 2916312.116 -17400274.403 -18405342.356 10 0 59339 78300.00000 0 3749405.027 -15167305.940 -20146035.123 10 0 59339 79200.00000 0 4825994.256 -12829676.731 -21494837.173 10 0 59339 80100.00000 0 6139089.468 -10454391.508 -22425482.250 10 0 59339 81000.00000 0 7669378.180 -8107308.889 -22919845.790 10 0 59339 81900.00000 0 9385840.320 -5850559.237 -22968299.686 10 0 59339 82800.00000 0 11246869.240 -3740133.226 -22569900.719 10 0 59339 83700.00000 0 13201853.148 -1823741.455 -21732409.018 10 0 59339 84600.00000 0 15193151.341 -139033.943 -20472136.158 10 0 59339 85500.00000 0 17158382.863 1287746.770 -18813625.864 10 0 59340 0.00000 0 19032931.996 2442623.669 -16789173.578 10 0 59340 900.00000 0 20752565.634 3324219.622 -14438193.930 10 0 59340 1800.00000 0 22256052.987 3943555.893 -11806449.367 10 0 59340 2700.00000 0 23487676.955 4323324.029 -8945154.125 10 0 59340 3600.00000 0 24399532.683 4496664.520 -5909972.104 10 0 59340 4500.00000 0 24953515.796 4505504.567 -2759928.363 10 0 59340 5400.00000 0 25122917.369 4398527.145 443743.979 10 0 59340 6300.00000 0 24893558.647 4228858.543 3638798.392 10 0 59340 7200.00000 0 24264418.237 4051573.406 6763187.250 10 0 59340 8100.00000 0 23247725.922 3921123.832 9756267.786 10 0 59340 9000.00000 0 21868519.725 3888801.948 12559978.019 10 0 59340 9900.00000 0 20163685.364 4000343.663 15119959.662 10 0 59340 10800.00000 0 18180518.843 4293775.018 17386606.546 10 0 59340 11700.00000 0 15974872.578 4797592.035 19316018.775 10 0 59340 12600.00000 0 13608962.591 5529350.700 20870844.803 10 0 59340 13500.00000 0 11148927.980 6494726.408 22020996.166 10 0 59340 14400.00000 0 8662243.710 7687082.511 22744221.996 10 0 59340 15300.00000 0 6215093.519 9087566.386 23026533.169 10 0 59340 16200.00000 0 3869810.986 10665729.623 22862468.696 10 0 59340 17100.00000 0 1682493.692 12380647.294 22255199.736 10 0 59340 18000.00000 0 -299111.765 14182490.609 21216469.423 10 0 59340 18900.00000 0 -2037367.451 16014488.592 19766369.550 10 0 59340 19800.00000 0 -3506072.729 17815198.231 17932957.898 10 0 59340 20700.00000 0 -4691309.560 19520989.530 15751722.902 10 0 59340 21600.00000 0 -5591770.244 21068642.791 13264905.056 10 0 59340 22500.00000 0 -6218554.609 22397950.362 10520687.129 10 0 59340 23400.00000 0 -6594445.616 23454214.404 7572267.980 10 0 59340 24300.00000 0 -6752694.231 24190536.159 4476837.069 10 0 59340 25200.00000 0 -6735364.914 24569800.415 1294468.937 10 0 59340 26100.00000 0 -6591311.717 24566271.212 -1913041.119 10 0 59340 27000.00000 0 -6373870.744 24166730.880 -5083377.605 10 0 59340 27900.00000 0 -6138366.915 23371113.456 -8154918.101 10 0 59340 28800.00000 0 -5939541.054 22192604.707 -11067935.096 10 0 59340 29700.00000 0 -5829006.913 20657203.447 -13765762.503 10 0 59340 30600.00000 0 -5852846.649 18802761.522 -16195903.569 10 0 59340 31500.00000 0 -6049447.485 16677541.925 -18311057.933 10 0 59340 32400.00000 0 -6447672.158 14338354.807 -20070047.431 10 0 59340 33300.00000 0 -7065441.624 11848348.911 -21438622.238 10 0 59340 34200.00000 0 -7908791.016 9274550.563 -22390131.350 10 0 59340 35100.00000 0 -8971439.807 6685252.764 -22906044.290 10 0 59340 36000.00000 0 -10234895.381 4147363.209 -22976313.775 10 0 59340 36900.00000 0 -11669086.580 1723821.696 -22599572.321 10 0 59340 37800.00000 0 -13233501.419 -528805.658 -21783158.946 10 0 59340 38700.00000 0 -14878781.844 -2562455.595 -20542975.454 10 0 59340 39600.00000 0 -16548708.923 -4339331.960 -18903175.101 10 0 59340 40500.00000 0 -18182495.420 -5833232.336 -16895689.708 10 0 59340 41400.00000 0 -19717289.531 -7030382.710 -14559604.425 10 0 59340 42300.00000 0 -21090784.469 -7929746.548 -11940392.478 10 0 59340 43200.00000 0 -22243824.109 -8542796.920 -9089024.988 10 0 59340 44100.00000 0 -23122894.852 -8892762.958 -6060973.524 10 0 59340 45000.00000 0 -23682398.694 -9013384.097 -2915125.316 10 0 59340 45900.00000 0 -23886611.695 -8947226.397 287367.199 10 0 59340 46800.00000 0 -23711245.422 -8743633.621 3484279.513 10 0 59340 47700.00000 0 -23144545.753 -8456401.081 6613527.016 10 0 59340 48600.00000 0 -22187883.047 -8141271.749 9614371.748 10 0 59340 49500.00000 0 -20855809.200 -7853361.362 12428600.252 10 0 59340 50400.00000 0 -19175579.532 -7644621.872 15001649.503 10 0 59340 51300.00000 0 -17186159.812 -7561450.629 17283659.344 10 0 59340 52200.00000 0 -14936760.122 -7642546.174 19230431.603 10 0 59340 53100.00000 0 -12484956.785 -7917100.825 20804277.959 10 0 59340 54000.00000 0 -9894480.357 -8403405.909 21974741.174 10 0 59340 54900.00000 0 -7232761.134 -9107928.099 22719176.717 10 0 59340 55800.00000 0 -4568333.421 -10024895.572 23023184.481 10 0 59340 56700.00000 0 -1968205.176 -11136411.588 22880883.062 10 0 59340 57600.00000 0 504699.144 -12413091.212 22295021.852 10 0 59340 58500.00000 0 2793917.791 -13815195.285 21276928.966 10 0 59340 59400.00000 0 4851555.726 -15294215.225 19846295.909 10 0 59340 60300.00000 0 6640027.418 -16794843.523 18030802.631 10 0 59340 61200.00000 0 8133367.109 -18257248.650 15865589.501 10 0 59340 62100.00000 0 9318053.040 -19619560.256 13392585.468 10 0 59340 63000.00000 0 10193312.093 -20820461.466 10659704.366 10 0 59340 63900.00000 0 10770892.617 -21801780.146 7719924.013 10 0 59340 64800.00000 0 11074315.494 -22510970.618 4630265.108 10 0 59340 65700.00000 0 11137635.181 -22903381.423 1450689.085 10 0 59340 66600.00000 0 11003763.139 -22944213.195 -1757063.903 10 0 59340 67500.00000 0 10722424.620 -22610083.430 -4930674.400 10 0 59340 68400.00000 0 10347835.432 -21890131.138 -8008456.919 10 0 59340 69300.00000 0 9936197.295 -20786613.595 -10930562.983 10 0 59340 70200.00000 0 9543118.320 -19314968.749 -13640149.989 10 0 59340 71100.00000 0 9221068.416 -17503339.293 -16084492.566 10 0 59340 72000.00000 0 9016978.078 -15391577.245 -18216014.125 10 0 59340 72900.00000 0 8970082.957 -13029769.726 -19993218.071 10 0 59340 73800.00000 0 9110106.247 -10476346.828 -21381500.177 10 0 59340 74700.00000 0 9455856.521 -7795850.142 -22353826.001 10 0 59340 75600.00000 0 10014301.089 -5056454.643 -22891260.067 10 0 59340 76500.00000 0 10780154.759 -2327346.982 -22983336.464 10 0 59340 77400.00000 0 11736002.010 323930.764 -22628263.595 10 0 59340 78300.00000 0 12852948.079 2834061.528 -21832959.156 10 0 59340 79200.00000 0 14091771.980 5146350.785 -20612914.621 10 0 59340 80100.00000 0 15404533.265 7212841.683 -18991891.897 10 0 59340 81000.00000 0 16736565.061 8996060.345 -17001458.032 10 0 59340 81900.00000 0 18028769.497 10470319.413 -14680367.062 10 0 59340 82800.00000 0 19220118.740 11622526.457 -12073801.173 10 0 59340 83700.00000 0 20250256.043 12452464.844 -9232486.167 10 0 59340 84600.00000 0 21062086.937 12972536.899 -6211698.741 10 0 59340 85500.00000 0 21604250.992 13206981.834 -3070185.485 10 0 59341 0.00000 0 21833369.750 13190603.192 130984.794 10 0 59341 900.00000 0 21715975.477 12967061.178 3329612.888 10 0 59341 1800.00000 0 21230040.487 12586803.389 6463580.302 10 0 59341 2700.00000 0 20366040.688 12104722.916 9472056.959 10 0 59341 3600.00000 0 19127510.758 11577643.472 12296680.853 10 0 59341 4500.00000 0 17531066.313 11061738.654 14882686.908 10 0 59341 5400.00000 0 15605892.865 10609994.520 17179963.407 10 0 59341 6300.00000 0 13392722.734 10269822.540 19144016.020 10 0 59341 7200.00000 0 10942342.574 10080923.259 20736821.437 10 0 59341 8100.00000 0 8313693.389 10073490.178 21927555.075 10 0 59341 9000.00000 0 5571641.396 10266828.904 22693179.778 10 0 59341 9900.00000 0 2784511.649 10668449.164 23018885.060 10 0 59341 10800.00000 0 21485.566 11273667.550 22898369.237 10 0 59341 11700.00000 0 -2650030.984 12065737.709 22333959.563 10 0 59341 12600.00000 0 -5166961.281 13016502.800 21336568.240 10 0 59341 13500.00000 0 -7472928.640 14087543.524 19925485.080 10 0 59341 14400.00000 0 -9520347.595 15231774.486 18128010.313 10 0 59341 15300.00000 0 -11272149.722 16395422.917 15978933.939 10 0 59341 16200.00000 0 -12703073.350 17520307.811 13519870.743 10 0 59341 17100.00000 0 -13800464.322 18546324.745 10798462.784 10 0 59341 18000.00000 0 -14564554.858 19414032.626 7867463.874 10 0 59341 18900.00000 0 -15008209.363 20067234.017 4783722.953 10 0 59341 19800.00000 0 -15156148.127 20455440.397 1607085.378 10 0 59341 20700.00000 0 -15043681.719 20536118.143 -1600766.740 10 0 59341 21600.00000 0 -14715009.610 20276619.782 -4777512.762 10 0 59341 22500.00000 0 -14221155.027 19655718.022 -7861406.769 10 0 59341 23400.00000 0 -13617623.524 18664676.575 -10792481.762 10 0 59341 24300.00000 0 -12961884.677 17307811.178 -13513720.835 10 0 59341 25200.00000 0 -12310783.857 15602515.660 -15972171.945 10 0 59341 26100.00000 0 -11717994.129 13578750.519 -18119983.913 10 0 59341 27000.00000 0 -11231616.639 11278014.114 -19915343.026 10 0 59341 27900.00000 0 -10892031.535 8751838.384 -21323291.648 10 0 59341 28800.00000 0 -10730090.846 6059871.156 -22316412.566 10 0 59341 29700.00000 0 -10765730.159 3267624.382 -22875365.671 10 0 59341 30600.00000 0 -11007058.195 443981.650 -22989266.448 10 0 59341 31500.00000 0 -11449963.045 -2341431.461 -22655898.901 10 0 59341 32400.00000 0 -12078252.021 -5020905.072 -21881758.765 10 0 59341 33300.00000 0 -12864319.368 -7531220.420 -20681926.211 10 0 59341 34200.00000 0 -13770313.818 -9816036.078 -19079770.474 10 0 59341 35100.00000 0 -14749756.684 -11827986.125 -17106492.197 10 0 59341 36000.00000 0 -15749542.161 -13530403.468 -14800512.402 10 0 59341 36900.00000 0 -16712235.159 -14898597.238 -12206720.125 10 0 59341 37800.00000 0 -17578569.379 -15920632.009 -9375593.580 10 0 59341 38700.00000 0 -18290039.773 -16597577.616 -6362212.248 10 0 59341 39600.00000 0 -18791479.480 -16943220.596 -3225179.661 10 0 59341 40500.00000 0 -19033512.027 -16983251.101 -25478.409 10 0 59341 41400.00000 0 -18974774.885 -16753961.234 3174719.815 10 0 59341 42300.00000 0 -18583820.278 -16300511.234 6313265.252 10 0 59341 43200.00000 0 -17840612.901 -15674838.146 9329238.231 10 0 59341 44100.00000 0 -16737561.332 -14933296.358 12164130.680 10 0 59341 45000.00000 0 -15280039.725 -14134130.377 14762977.882 10 0 59341 45900.00000 0 -13486377.775 -13334886.922 17075418.819 10 0 59341 46800.00000 0 -11387319.235 -12589875.452 19056665.030 10 0 59341 47700.00000 0 -9024971.350 -11947783.823 20668359.943 10 0 59341 48600.00000 0 -6451288.602 -11449548.857 21879312.987 10 0 59341 49500.00000 0 -3726153.161 -11126570.631 22666095.342 10 0 59341 50400.00000 0 -915130.983 -10999344.750 23013486.684 10 0 59341 51300.00000 0 1913004.437 -11076569.353 22914765.191 10 0 59341 52200.00000 0 4688879.358 -11354763.873 22371835.738 10 0 59341 53100.00000 0 7345151.348 -11818415.340 21395194.027 10 0 59341 54000.00000 0 9819057.552 -12440646.256 20003727.271 10 0 59341 54900.00000 0 12054775.379 -13184376.421 18224354.789 10 0 59341 55800.00000 0 14005498.766 -14003930.644 16091514.736 10 0 59341 56700.00000 0 15635144.830 -14847025.580 13646505.963 10 0 59341 57600.00000 0 16919620.620 -15657053.011 10936696.695 10 0 59341 58500.00000 0 17847597.683 -16375564.163 8014614.403 10 0 59341 59400.00000 0 18420762.423 -16944850.896 4936933.663 10 0 59341 60300.00000 0 18653532.030 -17310515.099 1763380.949 10 0 59341 61200.00000 0 18572247.952 -17423917.660 -1444422.619 10 0 59341 62100.00000 0 18213880.961 -17244403.030 -4624158.205 10 0 59341 63000.00000 0 17624302.454 -16741204.499 -7714022.406 10 0 59341 63900.00000 0 16856195.063 -15894948.474 -10653932.521 10 0 59341 64800.00000 0 15966691.034 -14698692.822 -13386699.979 10 0 59341 65700.00000 0 15014838.453 -13158453.851 -15859148.468 10 0 59341 66600.00000 0 14059002.791 -11293198.128 -18023154.357 10 0 59341 67500.00000 0 13154313.954 -9134297.886 -19836588.666 10 0 59341 68400.00000 0 12350267.100 -6724471.375 -21264141.858 10 0 59341 69300.00000 0 11688578.935 -4116251.337 -22278015.102 10 0 59341 70200.00000 0 11201390.227 -1370044.604 -22858464.408 10 0 59341 71100.00000 0 10909890.602 1448137.058 -22994187.028 10 0 59341 72000.00000 0 10823423.725 4269180.733 -22682542.516 10 0 59341 72900.00000 0 10939110.571 7023506.989 -21929604.239 10 0 59341 73800.00000 0 11242006.547 9643726.027 -20750040.280 10 0 59341 74700.00000 0 11705785.618 12067204.984 -19166826.095 10 0 59341 75600.00000 0 12293922.243 14238439.881 -17210794.490 10 0 59341 76500.00000 0 12961320.837 16111133.826 -14920031.737 10 0 59341 77400.00000 0 13656323.452 17649895.320 -12339131.683 10 0 59341 78300.00000 0 14323010.323 18831486.589 -9518322.616 10 0 59341 79200.00000 0 14903695.472 19645570.826 -6512484.180 10 0 59341 80100.00000 0 15341511.252 20094928.230 -3380074.009 10 0 59341 81000.00000 0 15582972.008 20195133.338 -181985.523 10 0 59341 81900.00000 0 15580407.959 19973708.760 3019640.332 10 0 59341 82800.00000 0 15294166.028 19468792.521 6162625.571 10 0 59341 83700.00000 0 14694484.373 18727376.613 9185963.927 10 0 59341 84600.00000 0 13762961.289 17803192.261 12031004.091 10 0 59341 85500.00000 0 12493556.436 16754331.942 14642584.305 99